User: anonymous   Login
Location: South Tamworth Observatory
(43.8246°N, 71.3026°W)
Time: 09:12:58
(UTC-04:00)
Language:

Cosmos 2208 Rocket - Orbit

View from above orbital plane
View from above orbital plane
View from above satellite
View from above satellite

Ground track
Ground track

The orbit data is extracted from the following two-line orbital elements,

1 22081U 92053B   15187.77485855  .00000128  00000-0  55333-4 0  9997
2 22081 074.0456 297.1762 0035052 080.2837 280.2271 14.33248185196915
Epoch (UTC): 06 July 2015 18:35:47
Eccentricity: 0.0035052
inclination: 74.0456°
perigee height: 756 km
apogee height: 806 km
right ascension of ascending node: 297.1762°
argument of perigee: 80.2837°
revolutions per day: 14.33248185
mean anomaly at epoch: 280.2271°
orbit number at epoch: 19691

The dashed part of the orbit path shows where the satellite is in the earth's shadow,  

DLR